This is the latest recevied weather packets stored in our database for station/object KC9MWQ-13. If no packets are shown the sender has not sent any weather packets the latest 10 day(s).
| Time | Temp. | Humidity | Pressure | Rain* | Wind** | Luminosity | Snow |
|---|---|---|---|---|---|---|---|
| 1778070231 | 8.89° C | 96% | 1013.1 hPa | 0 mm | - | 199 W/m² | - |
| 1778069929 | 8.89° C | 98% | 1013.1 hPa | 0 mm | - | 186 W/m² | - |
| 1778069626 | 8.33° C | 99% | 1012.9 hPa | 0 mm | - | 162 W/m² | - |
| 1778069323 | 8.89° C | 99% | 1013.2 hPa | 0 mm | - | 114 W/m² | - |
| 1778069021 | 8.89° C | 99% | 1013 hPa | 0 mm | - | 124 W/m² | - |
| 1778068718 | 8.33° C | 99% | 1012.8 hPa | 0 mm | - | 126 W/m² | - |
| 1778068416 | 8.89° C | 99% | 1012.6 hPa | 0 mm | - | 82 W/m² | - |
| 1778068114 | 8.33° C | 99% | 1012.7 hPa | 0 mm | - | 69 W/m² | - |
| 1778067811 | 7.78° C | 99% | 1012.8 hPa | 0 mm | - | 65 W/m² | - |
| 1778067510 | 7.22° C | 99% | 1012.7 hPa | 0 mm | - | 59 W/m² | - |
| 1778067207 | 7.22° C | 99% | 1012.6 hPa | 0 mm | - | 53 W/m² | - |
| 1778066903 | 6.67° C | 99% | 1012.4 hPa | 0 mm | - | 36 W/m² | - |
| 1778066601 | 6.67° C | 99% | 1012.1 hPa | 0 mm | - | 23 W/m² | - |
| 1778066298 | 6.67° C | 99% | 1012.3 hPa | 0 mm | - | 27 W/m² | - |
| 1778065996 | 6.67° C | 99% | 1011.9 hPa | 0 mm | - | 18 W/m² | - |
| 1778065693 | 6.67° C | 99% | 1012.1 hPa | 0 mm | - | 17 W/m² | - |
| 1778065390 | 6.67° C | 99% | 1012.1 hPa | 0 mm | - | 16 W/m² | - |
| 1778065087 | 7.22° C | 99% | 1012 hPa | 0 mm | - | 10 W/m² | - |
| 1778064783 | 6.67° C | 99% | 1011.7 hPa | 0 mm | - | 5 W/m² | - |
| 1778064481 | 6.67° C | 99% | 1011.9 hPa | 0 mm | - | 3 W/m² | - |
| 1778064179 | 6.67° C | 99% | 1011.6 hPa | 0 mm | - | 2 W/m² | - |
| 1778063876 | 6.67° C | 99% | 1011.7 hPa | 0 mm | - | 0 W/m² | - |
| 1778063573 | 6.67° C | 99% | 1011.5 hPa | 0 mm | - | 0 W/m² | - |
| 1778063271 | 6.67° C | 99% | 1011.3 hPa | 0 mm | - | 0 W/m² | - |
| 1778062969 | 6.67° C | 99% | 1011.5 hPa | 0 mm | - | 0 W/m² | - |
* Rain latest hour (hover to see other rain measurements)
** Current wind speed in m/s (hover to see current wind gust speed)